DMSP 5D-2 F13 DEB

Satellite information

Favourite Embed

Satellite Type and Status

DEBRISIN ORBIT

Key statistics

Satellite DMSP 5D-2 F13 DEB at a glance.

Uptime

11222

Days in orbit

Revolutions

≈ 14.1

Per day

Orbit

SSO

Sun Synchronous Orbit

Inclination

98.9

Latest

Satellite identification and parameters

Extended collection of information and parameters for DMSP 5D-2 F13 DEB.

Object identification

Identified? True

Debris? True

Object name: DMSP 5D-2 F13 DEB

International designator: 1995-015BG

Object number (NORAD): 40464

Object ID (CCSDS): 40464

Country: UNITED STATES OF AMERICA (US)

Current information (Y/N): Y

RCS size: SMALL

Orbital parameters

Period: 102.183 minutes

Inclination: 98.935 deg

SMA: 7240.103 km

Apoapsis: 920.557 km

Periapsis: 803.379 km

RAAN: 265.9162 deg

Eccentricy: 0.00809226

Argument of periapsis: 80.8499 deg

Mean anomaly: 280.1815 deg

Mean motion: 14.09242255 rev/day

Mean motion (dot): 0.00004285 rev/day2

B* drag term: 0.0024131031 1/REarth

Two-line elements (TLE)

Creation date: Dec. 9, 2025, 1:02 p.m.

Reference frame: TEME

Reference center: EARTH

Epoch: Dec. 9, 2025, 12:12 a.m. UTC

TLE line 0: 0 DMSP 5D-2 F13 DEB

TLE line 1: 1 40464U 95015BG 25343.00889809 .00004285 00000-0 24131-2 0 9999

TLE line 2: 2 40464 98.9350 265.9162 0080923 80.8499 280.1815 14.09242255548832

Live tracking on map

Real-time ground track for satellite DMSP 5D-2 F13 DEB.

In-orbit conjunctions

A list of the most updated potential collisions computed for object DMSP 5D-2 F13 DEB.

Target Orbit TCA Probability of collision Miss distance Type
COSMOS 1943 LEO 2025-12-04 19:45:54 0.0005264159 435.0 (m) PAYLOAD
COSMOS 1275 DEB LEO 2025-11-25 12:39:08 0.0001323077 111.0 (m) DEBRIS
COSMOS 1266 LEO 2025-02-05 16:45:57 0.0002452144 213.0 (m) PAYLOAD
METEOR 2-11 DEB LEO 2025-02-01 05:23:41 0.0001276899 215.0 (m) DEBRIS
METEOR 2-17 LEO 2024-11-22 11:09:35 0.0002553741 213.0 (m) PAYLOAD

Associated space launch

Military meteorological satellite

DMSP 5D-2 F13 DEB was lifted into orbit during the mission ‘Atlas E | DMSP-5D2 F13’, on board a Atlas E space rocket.

The launch took place on March 24, 1995, 2:05 p.m. from Space Launch Complex 3W.

For more information about the launch, click the button.

Launch to space Atlas E | DMSP-5D2 F13
Atlas E | DMSP-5D2 F13

Agency: N/A

Status: Launch Successful

Launch date: March 24, 1995, 2:05 p.m. UTC

Rocket: Atlas E

Launch pad: Space Launch Complex 3W

Location: Vandenberg SFB, CA, USA

...

Latest news about this satellite

There are no fresh news available about this satellite. Check back as we update our databases every day.


Newsletter sign-up

Weekly statistics, charts and insights to help you stay on top of the space industry.